Погода в Завидово

Россия / Тверская область     56°31′44″N   36°31′40″E
темп.,
°C
ветер,
м/с
пор.,
м/с
влажн.,
%
обл.,
%
осадки,
мм/ч
давл.,
гПа
погр.,
м
8 марта, пн
пн800:00−9зюз4119134 0.1 994391
03:00−8зюз4118763 0.1 993519
06:00−8з41093100 0.6 994807
09:00−8ссз51090100 0.8 997660
12:00−7сз5885100 0.1 1001752
15:00−6ссз4780100 0.3 10041008
18:00−9ссз3888100 0.1 1007592
21:00−11ссз3895100 0.2 1010511
9 марта, вт
вт900:00−13ссз289693 0.1 1012299
03:00−16ссз259790 0.1 1014144
06:00−18ссз259846 0.0 1016129
09:00−18ссз259261 0.0 1018278
12:00−14ссз348398 0.0 1018535
15:00−12ссз357899 0.0 1019741
18:00−15ссз2389100 0.0 102080
21:00−19ссв229655 0.0 102325
10 марта, ср
ср1000:00−21ссв22960 0.0 102422
03:00−23ссв12970 0.0 102620
06:00−24св12970 0.0 102620
09:00−21св23890 0.0 1028197
12:00−15св12690 0.0 1028436
15:00−12ссв12640 0.0 1028729
18:00−15с22830 0.0 102820
21:00−18св12910 0.0 103020
11 марта, чт
чт1100:00−20всв11950 0.0 103120
03:00−21ю00940 0.0 103120
06:00−21ююз11930 0.0 103120
09:00−17ююз12840 0.0 1032138
12:00−11ююз12670 0.0 1031458
15:00−9ююз24660 0.0 1030766
18:00−12ю23840 0.0 102955
21:00−15ю310890 0.0 1029256
12 марта, пт
пт1200:00−16ю411860 0.0 1028327
03:00−17ю412800 0.0 1027367
06:00−16ю4138914 0.0 1025358
09:00−13ююв6128953 0.0 1022391
12:00−8ююв71678100 0.0 1020669
15:00−5ю81573100 0.0 1016980
18:00−6ю71787100 0.4 10131307
21:00−4ю71587100 0.8 10111127